TimeHST,TemperatureF,Dew PointF,Humidity,Sea Level PressureIn,VisibilityMPH,Wind Direction,Wind SpeedMPH,Gust SpeedMPH,PrecipitationIn,Events,Conditions,WindDirDegrees,DateUTC
12:53 AM,68.0,57.0,68,30.02,10.0,Calm,Calm,-,N/A,,Scattered Clouds,0,2014-03-05 10:53:00
1:53 AM,66.9,57.9,73,30.00,10.0,NW,6.9,-,N/A,,Overcast,310,2014-03-05 11:53:00
2:53 AM,66.9,57.9,73,29.98,10.0,NNW,6.9,-,N/A,,Scattered Clouds,340,2014-03-05 12:53:00
3:53 AM,68.0,57.9,70,29.96,10.0,North,4.6,-,N/A,,Scattered Clouds,10,2014-03-05 13:53:00
4:53 AM,66.9,57.0,70,29.99,10.0,NNW,4.6,-,N/A,,Scattered Clouds,340,2014-03-05 14:53:00
5:53 AM,64.9,57.0,75,30.00,10.0,Calm,Calm,-,N/A,,Scattered Clouds,0,2014-03-05 15:53:00
6:53 AM,66.9,57.0,70,30.03,10.0,North,4.6,-,N/A,,Mostly Cloudy,350,2014-03-05 16:53:00
7:53 AM,69.1,57.9,68,30.05,10.0,NNW,3.5,-,N/A,,Mostly Cloudy,340,2014-03-05 17:53:00
8:53 AM,72.0,57.9,61,30.05,10.0,NE,3.5,-,N/A,,Mostly Cloudy,40,2014-03-05 18:53:00
9:53 AM,75.0,55.9,51,30.04,10.0,ENE,6.9,-,N/A,,Mostly Cloudy,60,2014-03-05 19:53:00
10:53 AM,75.9,55.9,50,30.03,10.0,Variable,4.6,-,N/A,,Mostly Cloudy,0,2014-03-05 20:53:00
11:53 AM,75.9,57.0,52,30.01,10.0,South,5.8,-,N/A,,Scattered Clouds,180,2014-03-05 21:53:00
12:53 PM,78.1,54.0,43,29.99,10.0,SW,8.1,-,N/A,,Scattered Clouds,220,2014-03-05 22:53:00
1:53 PM,78.1,59.0,52,29.96,10.0,South,9.2,-,N/A,,Mostly Cloudy,180,2014-03-05 23:53:00
2:53 PM,77.0,59.0,54,29.95,10.0,South,10.4,-,N/A,,Mostly Cloudy,180,2014-03-06 00:53:00
3:53 PM,77.0,61.0,58,29.96,10.0,SSE,9.2,-,N/A,,Mostly Cloudy,150,2014-03-06 01:53:00
4:53 PM,75.9,61.0,60,29.97,10.0,South,5.8,-,N/A,,Mostly Cloudy,170,2014-03-06 02:53:00
5:53 PM,73.9,62.1,66,29.97,10.0,SSE,6.9,-,N/A,,Mostly Cloudy,150,2014-03-06 03:53:00
6:53 PM,73.0,62.1,68,29.99,10.0,SSE,4.6,-,N/A,,Mostly Cloudy,160,2014-03-06 04:53:00
7:53 PM,73.0,61.0,66,29.99,10.0,SE,4.6,-,N/A,,Scattered Clouds,130,2014-03-06 05:53:00
8:53 PM,72.0,62.1,71,30.00,10.0,SE,4.6,-,N/A,,Scattered Clouds,130,2014-03-06 06:53:00
9:53 PM,71.1,61.0,70,30.01,10.0,NNE,3.5,-,N/A,,Scattered Clouds,20,2014-03-06 07:53:00
10:53 PM,70.0,61.0,73,30.02,10.0,NNW,3.5,-,N/A,,Scattered Clouds,340,2014-03-06 08:53:00
11:53 PM,68.0,61.0,78,30.03,10.0,North,4.6,-,N/A,,Scattered Clouds,350,2014-03-06 09:53:00